Colorado Springs, CO

4:37 AM MDT on September 26, 2016 (GMT -0600)
City Of Colorado Springs Municipal

Weather History for KCOS - June, 2013

Change the Weather History Date:

Tuesday, June 11, 2013

  Actual Average Record
Temperature  
Mean Temperature 81 °F 64 °F  
Max Temperature 97 °F 77 °F 97 °F (2013)
Min Temperature 65 °F 50 °F 33 °F (1975)
Degree Days  
Heating Degree Days 0 3  
Month to date heating degree days 25 46  
Since 1 June heating degree days 25 46  
Since 1 July heating degree days 6128 6259  
Cooling Degree Days 16 2  
Month to date cooling degree days 37 15  
Year to date cooling degree days 59 25  
Since 1 June cooling degree days 37 15  
Growing Degree Days 33 (Base 50)    
Moisture  
Dew Point 17 °F    
Average Humidity 13    
Maximum Humidity 24    
Minimum Humidity 2    
Precipitation  
Precipitation 0.00 in 0.08 in 1.90 in (1947)
Month to date precipitation 0.16 1.00  
Year to date precipitation 2.89 6.11  
Snow  
Snow 0.00 in 0.00 in 0.00 in (2015)
Month to date snowfall 0.0 0.0  
Since 1 June snowfall 0.0 0.0  
Since 1 July snowfall 29.6 37.7  
Snow Depth 0.00 in    
Sea Level Pressure  
Sea Level Pressure 29.69 in    
Wind  
Wind Speed 16 mph (West)    
Max Wind Speed 37 mph    
Max Gust Speed 47 mph    
Visibility 10 miles    
Events      
T = Trace of Precipitation, MM = Missing Value Source: NWS Daily Summary

Daily Weather History Graph

Daily Weather History Graph

Search for Another Location

Airport or City:

Trip Planner

Search our weather history database for the weather conditions in past years. The results will help you decide how hot, cold, wet, or windy it might be!

Date:

Astronomy

Jun. 11, 2013 Rise Set
Actual Time 5:33 AM MDT 8:23 PM MDT
Civil Twilight 5:01 AM MDT 8:55 PM MDT
Nautical Twilight 4:21 AM MDT 9:36 PM MDT
Astronomical Twilight 3:35 AM MDT 10:21 PM MDT
Moon 8:17 AM MDT (6/11) 10:29 PM MDT (6/11)
Length of Visible Light 15h 54m
Length of Day
14h 50m
Waxing Crescent, 8% of the Moon is Illuminated
Jun 11
Waxing Crescent
Jun 16
First Quarter
Jun 23
Full
Jun 29
Last Quarter
Jul 8
New

Hourly Weather History & Observations

Time (MDT) Temp. Dew Point Humidity Pressure Visibility Wind Dir Wind Speed Gust Speed Precip Events Conditions
12:54 AM 73.0 °F 28.9 °F 20% 29.66 in 10.0 mi North 10.4 mph - N/A   Partly Cloudy
1:54 AM 73.0 °F 30.9 °F 21% 29.65 in 10.0 mi NNW 4.6 mph - N/A   Partly Cloudy
2:54 AM 71.1 °F 32.0 °F 24% 29.67 in 10.0 mi NNW 5.8 mph - N/A   Clear
3:54 AM 71.1 °F 30.0 °F 22% 29.66 in 10.0 mi NW 6.9 mph - N/A   Clear
4:54 AM 72.0 °F 30.0 °F 21% 29.68 in 10.0 mi NW 9.2 mph - N/A   Clear
5:54 AM 70.0 °F 28.0 °F 21% 29.70 in 10.0 mi NNW 9.2 mph - N/A   Partly Cloudy
6:54 AM 72.0 °F 30.9 °F 22% 29.72 in 10.0 mi Calm Calm - N/A   Scattered Clouds
7:54 AM 80.1 °F 28.9 °F 15% 29.73 in 10.0 mi Calm Calm - N/A   Partly Cloudy
8:30 AM 84.2 °F 26.6 °F 12% 30.07 in 10.0 mi SSE 10.4 mph - N/A   Partly Cloudy
8:54 AM 86.0 °F 25.0 °F 11% 29.73 in 10.0 mi SSE 10.4 mph - N/A   Scattered Clouds
9:54 AM 90.0 °F 17.1 °F 7% 29.69 in 10.0 mi South 20.7 mph 26.5 mph N/A   Scattered Clouds
10:54 AM 90.0 °F 15.1 °F 6% 29.70 in 10.0 mi South 19.6 mph - N/A   Scattered Clouds
11:54 AM 93.0 °F 15.1 °F 6% 29.65 in 10.0 mi SW 29.9 mph 40.3 mph N/A   Scattered Clouds
12:54 PM 95.0 °F 10.0 °F 4% 29.65 in 8.0 mi SSW 28.8 mph 43.7 mph N/A   Scattered Clouds
1:54 PM 95.0 °F 9.0 °F 4% 29.62 in 10.0 mi SSW 23.0 mph 40.3 mph N/A   Scattered Clouds
2:54 PM 96.1 °F 3.9 °F 4% 29.59 in 7.0 mi SSW 21.9 mph 35.7 mph N/A   Scattered Clouds
3:54 PM 96.1 °F -4.0 °F 4% 29.57 in 8.0 mi SSW 28.8 mph 35.7 mph N/A   Scattered Clouds
4:54 PM 95.0 °F -2.0 °F 4% 29.56 in 10.0 mi SSW 24.2 mph 33.4 mph N/A   Scattered Clouds
5:54 PM 95.0 °F 3.9 °F 4% 29.91 in 10.0 mi WSW 26.5 mph 34.5 mph N/A   Scattered Clouds
6:54 PM 93.2 °F 1.4 °F 4% 29.59 in 10.0 mi West 24.2 mph 32.2 mph N/A   Scattered Clouds
7:54 PM 89.6 °F -0.4 °F 4% 29.61 in 10.0 mi West 19.6 mph 31.1 mph N/A   Scattered Clouds
8:54 PM 82.4 °F 12.2 °F 7% 29.65 in 10.0 mi NW 15.0 mph - N/A   Partly Cloudy
9:54 PM 82.0 °F 15.1 °F 8% 29.68 in 10.0 mi NW 17.3 mph 25.3 mph N/A   Clear
10:54 PM 80.1 °F 16.0 °F 9% 29.73 in 10.0 mi WNW 12.7 mph - N/A   Clear
11:54 PM 78.1 °F 18.0 °F 10% 29.74 in 10.0 mi NW 12.7 mph - N/A   Clear